When you browse on this site, cookies collect data to enhance your experience and personalize the content and advertising you see.
Visit our Privacy Policy to learn more. By continuing to use the site, you agree to this use of cookies and data.
  • en France
  • Liste des pays
  • À 7 jours
  • Température de l'eau
  • Carte satellitaire
  • Carte météo
  • Widgets météo
  • user-avatar
    Se connecter

    Météo par heure à Inkvalita

    Ce jour, 24 Janvier, Jeudi

    Heure Température Précipitation Vent Pression Humidité
    00:00 -4°C° 0 mm 2 m/s 632 mmHg 62%
    01:00 -4°C° 0 mm 2 m/s 632 mmHg 60%
    02:00 -5°C° 0 mm 2 m/s 632 mmHg 59%
    03:00 -5°C° 0 mm 3 m/s 631 mmHg 52%
    04:00 -5°C° 0 mm 3 m/s 631 mmHg 54%
    05:00 -4°C° 0 mm 2 m/s 631 mmHg 56%
    06:00 -4°C° 0 mm 2 m/s 631 mmHg 57%
    07:00 -4°C° 0 mm 2 m/s 631 mmHg 54%
    08:00 -3°C° 0 mm 2 m/s 631 mmHg 51%
    09:00 -3°C° 0 mm 2 m/s 631 mmHg 49%
    10:00 -1°C° 0 mm 2 m/s 632 mmHg 45%
    11:00 +2°C° 0 mm 2 m/s 632 mmHg 42%
    12:00 +4°C° 0 mm 1 m/s 632 mmHg 39%
    13:00 +4°C° 0 mm 1 m/s 632 mmHg 41%
    14:00 +5°C° 0 mm 1 m/s 631 mmHg 43%
    15:00 +5°C° 0 mm 1 m/s 631 mmHg 45%
    16:00 +3°C° 0 mm 2 m/s 630 mmHg 48%
    17:00 +1°C° 0 mm 2 m/s 630 mmHg 51%
    18:00 -1°C° 0 mm 3 m/s 629 mmHg 53%
    19:00 -1°C° 0 mm 3 m/s 629 mmHg 50%
    20:00 -2°C° 0 mm 3 m/s 628 mmHg 48%
    21:00 -2°C° 0 mm 3 m/s 628 mmHg 45%
    22:00 -2°C° 0 mm 3 m/s 628 mmHg 44%
    23:00 -2°C° 0 mm 3 m/s 628 mmHg 44%

    Demain, 25 Janvier, Vendredi

    Heure Température Précipitation Vent Pression Humidité
    00:00 -2°C° 0 mm 3 m/s 627 mmHg 44%
    01:00 -2°C° 0 mm 3 m/s 627 mmHg 44%
    02:00 -2°C° 0 mm 3 m/s 628 mmHg 45%
    03:00 -2°C° 0 mm 3 m/s 628 mmHg 46%
    04:00 -2°C° 0 mm 3 m/s 628 mmHg 47%
    05:00 -2°C° 0 mm 3 m/s 628 mmHg 47%
    06:00 -2°C° 0 mm 3 m/s 628 mmHg 47%
    07:00 -1°C° 0 mm 2 m/s 628 mmHg 47%
    08:00 -1°C° 0 mm 2 m/s 628 mmHg 47%
    09:00 +1°C° 0 mm 2 m/s 628 mmHg 47%
    10:00 +2°C° 0 mm 2 m/s 629 mmHg 45%
    11:00 +3°C° 0 mm 2 m/s 629 mmHg 43%
    12:00 +4°C° 0 mm 2 m/s 630 mmHg 42%
    13:00 +4°C° 0 mm 2 m/s 630 mmHg 43%
    14:00 +4°C° 0 mm 2 m/s 630 mmHg 45%
    15:00 +3°C° 0 mm 2 m/s 630 mmHg 47%
    16:00 +2°C° 0 mm 2 m/s 630 mmHg 50%
    17:00 +1°C° 0 mm 2 m/s 630 mmHg 52%
    18:00 -1°C° 0 mm 2 m/s 630 mmHg 54%
    19:00 -2°C° 0 mm 2 m/s 630 mmHg 52%
    20:00 -2°C° 0 mm 2 m/s 630 mmHg 49%
    21:00 -2°C° 0 mm 2 m/s 631 mmHg 47%
    22:00 -2°C° 0 mm 2 m/s 631 mmHg 44%
    23:00 -2°C° 0 mm 2 m/s 631 mmHg 42%

    Après-demain, 26 Janvier, Samedi

    Heure Température Précipitation Vent Pression Humidité
    00:00 -2°C° 0 mm 2 m/s 631 mmHg 40%
    01:00 0°C° 0 mm 1 m/s 631 mmHg 40%
    02:00 -1°C° 0 mm 1 m/s 631 mmHg 40%
    03:00 -1°C° 0 mm 1 m/s 631 mmHg 40%
    04:00 -1°C° 0 mm 1 m/s 631 mmHg 41%
    05:00 -1°C° 0 mm 1 m/s 631 mmHg 42%
    06:00 -1°C° 0 mm 1 m/s 631 mmHg 43%
    07:00 0°C° 0 mm 1 m/s 631 mmHg 42%
    08:00 0°C° 0 mm 1 m/s 632 mmHg 40%
    09:00 +1°C° 0 mm 1 m/s 632 mmHg 39%
    10:00 +1°C° 0 mm 2 m/s 632 mmHg 37%
    11:00 +3°C° 0 mm 2 m/s 632 mmHg 36%
    12:00 +4°C° 0 mm 2 m/s 632 mmHg 35%
    13:00 +4°C° 0 mm 2 m/s 632 mmHg 39%
    14:00 +4°C° 0 mm 2 m/s 631 mmHg 43%
    15:00 +3°C° 0 mm 2 m/s 631 mmHg 47%
    16:00 +2°C° 0 mm 2 m/s 630 mmHg 50%
    17:00 +1°C° 0 mm 2 m/s 630 mmHg 54%
    18:00 -1°C° 0 mm 2 m/s 629 mmHg 57%
    19:00 -1°C° 0 mm 2 m/s 629 mmHg 56%
    20:00 -1°C° 0 mm 2 m/s 629 mmHg 56%
    21:00 -2°C° 0 mm 2 m/s 629 mmHg 55%
    22:00 -2°C° 0 mm 2 m/s 629 mmHg 55%
    23:00 -2°C° 0 mm 2 m/s 628 mmHg 55%

    27 Janvier, Dimanche

    Heure Température Précipitation Vent Pression Humidité
    00:00 -2°C° 0 mm 3 m/s 628 mmHg 55%
    01:00 -2°C° 0 mm 3 m/s 628 mmHg 56%
    02:00 -2°C° 0 mm 3 m/s 628 mmHg 56%
    03:00 -2°C° 0 mm 3 m/s 628 mmHg 57%
    04:00 -2°C° 0 mm 3 m/s 628 mmHg 58%
    05:00 -2°C° 0 mm 3 m/s 628 mmHg 58%
    06:00 -2°C° 0 mm 3 m/s 627 mmHg 59%
    07:00 -1°C° 0 mm 3 m/s 628 mmHg 57%
    08:00 0°C° 0 mm 3 m/s 628 mmHg 56%
    09:00 +1°C° 0 mm 3 m/s 628 mmHg 54%
    10:00 +2°C° 0 mm 3 m/s 628 mmHg 51%
    11:00 +4°C° 0 mm 3 m/s 628 mmHg 48%
    12:00 +5°C° 0 mm 3 m/s 628 mmHg 45%
    13:00 +5°C° 0 mm 3 m/s 628 mmHg 46%
    14:00 +5°C° 0 mm 3 m/s 627 mmHg 47%
    15:00 +5°C° 0 mm 3 m/s 627 mmHg 49%
    16:00 +4°C° 0 mm 3 m/s 627 mmHg 53%
    17:00 +2°C° 0 mm 3 m/s 626 mmHg 57%
    18:00 +1°C° 0 mm 3 m/s 626 mmHg 62%
    19:00 +1°C° 0 mm 3 m/s 626 mmHg 61%
    20:00 +1°C° 0 mm 3 m/s 626 mmHg 61%
    21:00 +1°C° 0 mm 3 m/s 626 mmHg 61%
    22:00 0°C° 0 mm 3 m/s 626 mmHg 62%
    23:00 0°C° 0 mm 3 m/s 626 mmHg 63%

    28 Janvier, Lundi

    Heure Température Précipitation Vent Pression Humidité
    00:00 0°C° 0 mm 3 m/s 626 mmHg 64%
    01:00 0°C° 0 mm 3 m/s 626 mmHg 64%
    02:00 0°C° 0 mm 3 m/s 626 mmHg 64%
    03:00 0°C° 0 mm 3 m/s 627 mmHg 64%
    04:00 -1°C° 0 mm 3 m/s 627 mmHg 65%
    05:00 -1°C° 0 mm 2 m/s 627 mmHg 67%
    06:00 -2°C° 0 mm 2 m/s 628 mmHg 68%
    07:00 -1°C° 0 mm 2 m/s 628 mmHg 66%
    08:00 -1°C° 0 mm 2 m/s 629 mmHg 64%
    09:00 +1°C° 0 mm 2 m/s 630 mmHg 62%
    10:00 +1°C° 0 mm 2 m/s 630 mmHg 63%
    11:00 +2°C° 0 mm 2 m/s 630 mmHg 63%
    12:00 +3°C° 0 mm 2 m/s 630 mmHg 63%
    13:00 +2°C° 0 mm 2 m/s 630 mmHg 67%
    14:00 +2°C° 0 mm 2 m/s 629 mmHg 72%
    15:00 +2°C° 0 mm 2 m/s 629 mmHg 77%
    16:00 +1°C° 0.1 mm 2 m/s 629 mmHg 81%
    17:00 -1°C° 0.1 mm 2 m/s 630 mmHg 85%
    18:00 +1°C° 0.1 mm 1 m/s 630 mmHg 89%
    19:00 0°C° 0 mm 1 m/s 630 mmHg 89%
    20:00 0°C° 0 mm 1 m/s 630 mmHg 88%
    21:00 0°C° 0 mm 1 m/s 630 mmHg 87%
    22:00 0°C° 0 mm 1 m/s 630 mmHg 87%
    23:00 0°C° 0 mm 1 m/s 630 mmHg 86%

    29 Janvier, Mardi

    Heure Température Précipitation Vent Pression Humidité
    00:00 0°C° 0 mm 1 m/s 630 mmHg 85%
    01:00 -1°C° 0 mm 1 m/s 630 mmHg 85%
    02:00 -1°C° 0 mm 1 m/s 630 mmHg 84%
    03:00 -1°C° 0 mm 1 m/s 630 mmHg 84%
    04:00 -1°C° 0 mm 1 m/s 629 mmHg 84%
    05:00 -1°C° 0 mm 1 m/s 629 mmHg 85%
    06:00 -1°C° 0 mm 1 m/s 629 mmHg 85%
    07:00 -2°C° 0 mm 0 m/s 630 mmHg 84%
    08:00 -2°C° 0 mm 0 m/s 630 mmHg 82%
    09:00 -1°C° 0 mm 0 m/s 631 mmHg 80%
    10:00 0°C° 0 mm 1 m/s 631 mmHg 77%
    11:00 +1°C° 0 mm 1 m/s 631 mmHg 73%
    12:00 +2°C° 0 mm 1 m/s 632 mmHg 69%
    13:00 +2°C° 0 mm 1 m/s 632 mmHg 70%
    14:00 +2°C° 0 mm 1 m/s 632 mmHg 71%
    15:00 +2°C° 0 mm 1 m/s 632 mmHg 72%
    16:00 +1°C° 0 mm 1 m/s 632 mmHg 77%
    17:00 +1°C° 0 mm 1 m/s 632 mmHg 82%
    18:00 -1°C° 0 mm 0 m/s 632 mmHg 87%
    19:00 0°C° 0 mm 1 m/s 633 mmHg 82%
    20:00 0°C° 0 mm 1 m/s 633 mmHg 78%
    21:00 0°C° 0 mm 1 m/s 633 mmHg 74%
    22:00 0°C° 0 mm 1 m/s 634 mmHg 70%
    23:00 0°C° 0 mm 1 m/s 634 mmHg 65%
    Voir plus